| time (UTC) | temp F | wind direction | speed MPH | gust MPH | rain 1hr in | rain 24hr in | rain mn in | humidity % | barometer mb |
| 20260506225335 | 56 | 136 | 0.0 | 0.0 | 0.00 | 0.27 | 0.27 | 58 | 1016.4 |
| 20260506224827 | 56 | 117 | 0.0 | 0.0 | 0.00 | 0.27 | 0.27 | 60 | 1016.3 |
| 20260506224324 | 55 | 122 | 0.0 | 0.0 | 0.00 | 0.27 | 0.27 | 59 | 1016.2 |
| 20260506223820 | 55 | 146 | 0.0 | 0.0 | 0.00 | 0.27 | 0.27 | 59 | 1016.3 |
| 20260506223315 | 55 | 127 | 0.0 | 0.0 | 0.00 | 0.27 | 0.27 | 57 | 1016.5 |
| 20260506222813 | 56 | 142 | 0.0 | 0.0 | 0.00 | 0.27 | 0.27 | 62 | 1016.6 |
| 20260506222308 | 56 | 122 | 0.0 | 0.0 | 0.00 | 0.27 | 0.27 | 59 | 1016.4 |
| 20260506221806 | 56 | 106 | 0.0 | 0.0 | 0.00 | 0.27 | 0.27 | 59 | 1016.4 |
| 20260506221303 | 56 | 181 | 0.0 | 0.0 | 0.00 | 0.27 | 0.27 | 61 | 1016.3 |
| 20260506220801 | 57 | 154 | 0.0 | 0.0 | 0.00 | 0.27 | 0.27 | 60 | 1016.0 |
| 20260506220256 | 56 | 290 | 1.0 | 2.0 | 0.00 | 0.27 | 0.27 | 57 | 1016.0 |
| 20260506215753 | 56 | 144 | 0.0 | 0.0 | 0.00 | 0.27 | 0.27 | 57 | 1015.8 |
| 20260506215249 | 57 | 167 | 0.0 | 0.0 | 0.00 | 0.27 | 0.27 | 57 | 1015.9 |
| 20260506214745 | 57 | 130 | 0.0 | 0.0 | 0.00 | 0.27 | 0.27 | 57 | 1016.0 |
| 20260506214242 | 56 | 99 | 1.0 | 2.0 | 0.00 | 0.27 | 0.27 | 55 | 1015.8 |
| 20260506213740 | 56 | 142 | 0.0 | 0.0 | 0.00 | 0.27 | 0.27 | 59 | 1015.5 |
| 20260506213231 | 56 | 134 | 0.0 | 0.0 | 0.00 | 0.27 | 0.27 | 58 | 1015.5 |
| 20260506212728 | 56 | 291 | 0.0 | 2.0 | 0.00 | 0.27 | 0.27 | 58 | 1015.6 |
| 20260506212223 | 56 | 332 | 2.0 | 3.0 | 0.00 | 0.27 | 0.27 | 55 | 1015.7 |
| 20260506211714 | 57 | 171 | 1.0 | 1.0 | 0.00 | 0.27 | 0.27 | 56 | 1015.5 |
| 20260506211210 | 57 | 187 | 1.0 | 2.0 | 0.00 | 0.27 | 0.27 | 59 | 1015.5 |
| 20260506210707 | 56 | 135 | 0.0 | 0.0 | 0.00 | 0.27 | 0.27 | 59 | 1015.5 |
| 20260506210204 | 56 | 84 | 0.0 | 0.0 | 0.00 | 0.27 | 0.27 | 57 | 1015.4 |
| 20260506205701 | 57 | 153 | 0.0 | 0.0 | 0.00 | 0.27 | 0.27 | 58 | 1015.6 |
| 20260506205156 | 57 | 101 | 0.0 | 1.0 | 0.00 | 0.27 | 0.27 | 58 | 1015.5 |
| 20260506204654 | 57 | 138 | 0.0 | 0.0 | 0.00 | 0.27 | 0.27 | 64 | 1015.5 |
| 20260506204151 | 57 | 138 | 0.0 | 0.0 | 0.00 | 0.27 | 0.27 | 62 | 1015.6 |
| 20260506203649 | 57 | 145 | 0.0 | 0.0 | 0.00 | 0.27 | 0.27 | 59 | 1015.6 |
| 20260506203146 | 57 | 139 | 1.0 | 2.0 | 0.00 | 0.27 | 0.27 | 57 | 1015.1 |
| 20260506202644 | 58 | 122 | 0.0 | 0.0 | 0.00 | 0.27 | 0.27 | 56 | 1015.4 |
| 20260506202139 | 57 | 150 | 0.0 | 0.0 | 0.00 | 0.27 | 0.27 | 56 | 1015.3 |
| 20260506201637 | 57 | 145 | 0.0 | 1.0 | 0.00 | 0.27 | 0.27 | 57 | 1015.4 |
| 20260506201133 | 56 | 142 | 0.0 | 0.0 | 0.00 | 0.27 | 0.27 | 56 | 1015.3 |
| 20260506200630 | 57 | 139 | 1.0 | 3.0 | 0.00 | 0.27 | 0.27 | 60 | 1015.4 |
| 20260506200127 | 57 | 83 | 2.0 | 2.0 | 0.00 | 0.27 | 0.27 | 58 | 1015.2 |
| 20260506195623 | 57 | 72 | 1.0 | 1.0 | 0.00 | 0.27 | 0.27 | 61 | 1015.4 |
| 20260506195119 | 57 | 138 | 0.0 | 1.0 | 0.00 | 0.27 | 0.27 | 58 | 1015.1 |
| 20260506194617 | 57 | 7 | 2.0 | 5.0 | 0.00 | 0.27 | 0.27 | 55 | 1015.1 |
| 20260506194113 | 57 | 119 | 0.0 | 1.0 | 0.00 | 0.27 | 0.27 | 57 | 1015.2 |
| 20260506193611 | 57 | 79 | 1.0 | 1.0 | 0.00 | 0.27 | 0.27 | 60 | 1015.2 |
| 20260506193108 | 57 | 139 | 0.0 | 0.0 | 0.00 | 0.27 | 0.27 | 61 | 1015.2 |
| 20260506192605 | 57 | 340 | 3.0 | 5.0 | 0.00 | 0.27 | 0.27 | 56 | 1015.3 |
| 20260506192101 | 57 | 292 | 3.0 | 6.0 | 0.00 | 0.27 | 0.27 | 56 | 1015.1 |
| 20260506191557 | 58 | 327 | 5.0 | 6.0 | 0.00 | 0.27 | 0.27 | 53 | 1015.2 |
| 20260506191053 | 59 | 137 | 1.0 | 2.0 | 0.00 | 0.27 | 0.27 | 55 | 1015.0 |
| 20260506190551 | 59 | 55 | 3.0 | 5.0 | 0.00 | 0.27 | 0.27 | 53 | 1015.0 |
| 20260506190048 | 59 | 194 | 1.0 | 2.0 | 0.00 | 0.27 | 0.27 | 54 | 1014.9 |
| 20260506185545 | 60 | 139 | 1.0 | 1.0 | 0.00 | 0.27 | 0.27 | 52 | 1015.1 |
| 20260506185042 | 60 | 299 | 1.0 | 2.0 | 0.00 | 0.27 | 0.27 | 53 | 1014.9 |
| 20260506184539 | 60 | 180 | 0.0 | 1.0 | 0.00 | 0.27 | 0.27 | 56 | 1014.9 |
| 20260506184036 | 59 | 183 | 2.0 | 3.0 | 0.00 | 0.27 | 0.27 | 53 | 1014.9 |
| 20260506183532 | 60 | 285 | 0.0 | 1.0 | 0.00 | 0.27 | 0.27 | 56 | 1014.9 |
| 20260506183029 | 59 | 27 | 0.0 | 1.0 | 0.00 | 0.27 | 0.27 | 56 | 1015.2 |
| 20260506182526 | 59 | 180 | 0.0 | 2.0 | 0.00 | 0.27 | 0.27 | 53 | 1015.4 |
| 20260506182023 | 60 | 76 | 2.0 | 3.0 | 0.00 | 0.27 | 0.27 | 52 | 1015.2 |
| 20260506181521 | 61 | 298 | 1.0 | 3.0 | 0.00 | 0.27 | 0.27 | 58 | 1015.1 |
| 20260506181018 | 59 | 270 | 1.0 | 2.0 | 0.00 | 0.27 | 0.27 | 55 | 1015.3 |
| 20260506180514 | 59 | 136 | 0.0 | 0.0 | 0.00 | 0.27 | 0.27 | 54 | 1015.1 |
| 20260506180011 | 60 | 92 | 0.0 | 0.0 | 0.00 | 0.27 | 0.27 | 54 | 1015.1 |
| 20260506175508 | 59 | 122 | 0.0 | 0.0 | 0.00 | 0.27 | 0.27 | 55 | 1015.2 |
| 20260506175004 | 60 | 188 | 0.0 | 1.0 | 0.00 | 0.27 | 0.27 | 57 | 1015.3 |
| 20260506174502 | 60 | 148 | 0.0 | 0.0 | 0.00 | 0.27 | 0.27 | 59 | 1015.4 |
| 20260506173958 | 59 | 324 | 1.0 | 2.0 | 0.00 | 0.27 | 0.27 | 58 | 1015.4 |
| 20260506173456 | 58 | 133 | 0.0 | 0.0 | 0.00 | 0.27 | 0.27 | 60 | 1015.4 |
| 20260506172952 | 57 | 119 | 1.0 | 1.0 | 0.00 | 0.27 | 0.27 | 58 | 1015.4 |
| 20260506172450 | 59 | 329 | 4.0 | 7.0 | 0.00 | 0.27 | 0.27 | 55 | 1015.5 |
| 20260506171946 | 59 | 141 | 0.0 | 0.0 | 0.00 | 0.27 | 0.27 | 62 | 1015.3 |
| 20260506171444 | 58 | 106 | 2.0 | 2.0 | 0.00 | 0.27 | 0.27 | 60 | 1015.1 |
| 20260506170941 | 57 | 152 | 1.0 | 2.0 | 0.00 | 0.27 | 0.27 | 60 | 1015.2 |
| 20260506170437 | 58 | 219 | 3.0 | 5.0 | 0.00 | 0.27 | 0.27 | 58 | 1015.5 |
| 20260506165930 | 58 | 199 | 2.0 | 2.0 | 0.00 | 0.27 | 0.27 | 58 | 1015.4 |
| 20260506165428 | 59 | 93 | 2.0 | 3.0 | 0.00 | 0.27 | 0.27 | 64 | 1015.2 |
| 20260506164918 | 57 | 161 | 0.0 | 1.0 | 0.00 | 0.27 | 0.27 | 59 | 1015.1 |
| 20260506164414 | 57 | 162 | 1.0 | 2.0 | 0.00 | 0.27 | 0.27 | 59 | 1015.3 |
| 20260506163908 | 57 | 349 | 6.0 | 8.0 | 0.00 | 0.27 | 0.27 | 59 | 1015.5 |
| 20260506163401 | 57 | 92 | 1.0 | 1.0 | 0.00 | 0.27 | 0.27 | 61 | 1015.6 |
| 20260506162856 | 58 | 257 | 2.0 | 2.0 | 0.00 | 0.27 | 0.27 | 59 | 1015.7 |
| 20260506162354 | 57 | 138 | 1.0 | 1.0 | 0.00 | 0.27 | 0.27 | 61 | 1015.7 |
| 20260506161847 | 57 | 79 | 1.0 | 2.0 | 0.00 | 0.27 | 0.27 | 61 | 1015.5 |
| 20260506161344 | 56 | 141 | 0.0 | 0.0 | 0.00 | 0.27 | 0.27 | 68 | 1015.4 |
| 20260506160842 | 56 | 183 | 1.0 | 1.0 | 0.00 | 0.27 | 0.27 | 65 | 1015.4 |
| 20260506160338 | 56 | 148 | 2.0 | 2.0 | 0.00 | 0.27 | 0.27 | 63 | 1015.5 |
| 20260506155836 | 55 | 133 | 0.0 | 0.0 | 0.00 | 0.27 | 0.27 | 66 | 1015.2 |
| 20260506155333 | 55 | 163 | 1.0 | 2.0 | 0.00 | 0.27 | 0.27 | 69 | 1015.3 |
| 20260506153445 | 54 | 139 | 0.0 | 0.0 | 0.00 | 0.27 | 0.27 | 69 | 1015.2 |
| 20260506152942 | 55 | 117 | 1.0 | 1.0 | 0.00 | 0.27 | 0.27 | 66 | 1014.8 |
| 20260506152439 | 54 | 120 | 1.0 | 2.0 | 0.00 | 0.27 | 0.27 | 68 | 1014.8 |
| 20260506151938 | 54 | 287 | 2.0 | 2.0 | 0.00 | 0.27 | 0.27 | 70 | 1015.1 |
| 20260506151434 | 53 | 223 | 3.0 | 3.0 | 0.00 | 0.27 | 0.27 | 70 | 1014.9 |
| 20260506150932 | 53 | 138 | 0.0 | 1.0 | 0.00 | 0.27 | 0.27 | 70 | 1014.6 |
| 20260506150428 | 52 | 135 | 0.0 | 0.0 | 0.00 | 0.27 | 0.27 | 70 | 1014.8 |
| 20260506145925 | 52 | 135 | 1.0 | 1.0 | 0.00 | 0.27 | 0.27 | 70 | 1014.7 |
| 20260506145421 | 52 | 145 | 2.0 | 3.0 | 0.00 | 0.27 | 0.27 | 73 | 1014.7 |
| 20260506144919 | 52 | 92 | 2.0 | 3.0 | 0.00 | 0.27 | 0.27 | 74 | 1014.9 |
| 20260506144415 | 52 | 285 | 3.0 | 3.0 | 0.00 | 0.27 | 0.27 | 75 | 1014.8 |
| 20260506143914 | 51 | 144 | 0.0 | 0.0 | 0.00 | 0.27 | 0.27 | 78 | 1014.8 |
| 20260506143410 | 51 | 145 | 0.0 | 0.0 | 0.00 | 0.27 | 0.27 | 77 | 1014.9 |
| 20260506142909 | 51 | 284 | 1.0 | 3.0 | 0.00 | 0.27 | 0.27 | 80 | 1014.7 |
| 20260506142407 | 50 | 323 | 3.0 | 3.0 | 0.00 | 0.27 | 0.27 | 80 | 1014.4 |
| 20260506141904 | 50 | 224 | 2.0 | 3.0 | 0.00 | 0.27 | 0.27 | 80 | 1014.6 |
| 20260506141402 | 51 | 100 | 0.0 | 0.0 | 0.00 | 0.27 | 0.27 | 83 | 1014.3 |
| 20260506140900 | 50 | 120 | 0.0 | 1.0 | 0.00 | 0.27 | 0.27 | 83 | 1014.3 |
| 20260506140357 | 50 | 136 | 0.0 | 0.0 | 0.00 | 0.27 | 0.27 | 85 | 1013.9 |
| 20260506135854 | 50 | 116 | 1.0 | 2.0 | 0.00 | 0.27 | 0.27 | 85 | 1014.1 |
| 20260506135351 | 49 | 355 | 3.0 | 3.0 | 0.00 | 0.27 | 0.27 | 85 | 1014.4 |
| 20260506134847 | 49 | 120 | 0.0 | 1.0 | 0.00 | 0.27 | 0.27 | 86 | 1013.9 |
| 20260506134343 | 48 | 323 | 2.0 | 2.0 | 0.00 | 0.27 | 0.27 | 86 | 1014.1 |
| 20260506133840 | 49 | 128 | 0.0 | 1.0 | 0.00 | 0.27 | 0.27 | 90 | 1013.7 |
| 20260506133337 | 48 | 124 | 2.0 | 3.0 | 0.00 | 0.27 | 0.27 | 94 | 1013.8 |
| 20260506132833 | 46 | 148 | 0.0 | 0.0 | 0.00 | 0.27 | 0.27 | 98 | 1013.6 |
| 20260506132331 | 46 | 138 | 0.0 | 0.0 | 0.00 | 0.27 | 0.27 | 99 | 1013.6 |
| 20260506131829 | 46 | 126 | 1.0 | 2.0 | 0.00 | 0.27 | 0.27 | 99 | 1013.6 |
| 20260506131325 | 47 | 140 | 0.0 | 0.0 | 0.00 | 0.27 | 0.27 | 99 | 1013.9 |
| 20260506130822 | 46 | 110 | 0.0 | 0.0 | 0.00 | 0.27 | 0.27 | 99 | 1013.8 |
| 20260506130318 | 46 | 139 | 0.0 | 0.0 | 0.00 | 0.27 | 0.27 | 99 | 1013.9 |
| 20260506125816 | 46 | 116 | 0.0 | 0.0 | 0.00 | 0.27 | 0.27 | 99 | 1013.8 |
| 20260506125314 | 45 | 163 | 2.0 | 2.0 | 0.00 | 0.27 | 0.27 | 99 | 1014.1 |
| 20260506124813 | 46 | 239 | 2.0 | 3.0 | 0.00 | 0.27 | 0.27 | 99 | 1013.8 |
| 20260506124309 | 46 | 148 | 2.0 | 3.0 | 0.00 | 0.27 | 0.27 | 99 | 1013.6 |
| 20260506123807 | 46 | 356 | 2.0 | 3.0 | 0.00 | 0.27 | 0.27 | 99 | 1013.3 |
| 20260506123306 | 47 | 180 | 0.0 | 0.0 | 0.00 | 0.27 | 0.27 | 99 | 1013.2 |
| 20260506122802 | 47 | 88 | 0.0 | 0.0 | 0.00 | 0.27 | 0.27 | 99 | 1012.8 |
| 20260506122259 | 46 | 130 | 1.0 | 1.0 | 0.00 | 0.27 | 0.27 | 99 | 1012.8 |
| 20260506121757 | 46 | 160 | 0.0 | 0.0 | 0.00 | 0.27 | 0.27 | 99 | 1012.6 |
| 20260506121254 | 46 | 108 | 1.0 | 1.0 | 0.00 | 0.27 | 0.27 | 99 | 1012.6 |
| 20260506120751 | 46 | 38 | 2.0 | 2.0 | 0.00 | 0.27 | 0.27 | 99 | 1012.7 |
| 20260506120249 | 46 | 148 | 0.0 | 0.0 | 0.00 | 0.27 | 0.27 | 99 | 1012.9 |
| 20260506115746 | 46 | 140 | 0.0 | 0.0 | 0.00 | 0.27 | 0.27 | 99 | 1012.9 |
| 20260506115244 | 46 | 73 | 0.0 | 0.0 | 0.00 | 0.27 | 0.27 | 99 | 1012.4 |
| 20260506114742 | 46 | 111 | 0.0 | 0.0 | 0.00 | 0.27 | 0.27 | 99 | 1012.7 |
| 20260506114239 | 46 | 146 | 0.0 | 0.0 | 0.00 | 0.27 | 0.27 | 99 | 1012.9 |
| 20260506113738 | 46 | 136 | 0.0 | 0.0 | 0.00 | 0.27 | 0.27 | 99 | 1012.8 |
| 20260506113235 | 46 | 139 | 0.0 | 0.0 | 0.00 | 0.27 | 0.27 | 99 | 1012.8 |
| 20260506112731 | 46 | 140 | 0.0 | 0.0 | 0.00 | 0.27 | 0.27 | 99 | 1012.7 |
| 20260506112229 | 46 | 151 | 0.0 | 1.0 | 0.00 | 0.27 | 0.27 | 99 | 1012.2 |
| 20260506111726 | 46 | 145 | 1.0 | 1.0 | 0.00 | 0.27 | 0.27 | 99 | 1011.6 |
| 20260506111224 | 46 | 133 | 1.0 | 1.0 | 0.00 | 0.27 | 0.27 | 99 | 1011.6 |
| 20260506110721 | 46 | 135 | 2.0 | 2.0 | 0.00 | 0.27 | 0.27 | 99 | 1011.4 |
| 20260506110218 | 46 | 128 | 1.0 | 1.0 | 0.00 | 0.27 | 0.27 | 99 | 1011.6 |
| 20260506105714 | 46 | 51 | 0.0 | 0.0 | 0.00 | 0.27 | 0.27 | 99 | 1012.0 |
| 20260506105212 | 46 | 193 | 0.0 | 0.0 | 0.00 | 0.27 | 0.27 | 99 | 1011.6 |
| 20260506104710 | 46 | 127 | 0.0 | 0.0 | 0.00 | 0.27 | 0.27 | 99 | 1011.6 |
| 20260506104207 | 46 | 142 | 0.0 | 0.0 | 0.00 | 0.27 | 0.27 | 99 | 1011.9 |
| 20260506103704 | 46 | 155 | 0.0 | 0.0 | 0.00 | 0.27 | 0.27 | 99 | 1011.5 |
| 20260506103201 | 46 | 298 | 3.0 | 5.0 | 0.00 | 0.27 | 0.27 | 99 | 1011.8 |
| 20260506102659 | 46 | 132 | 0.0 | 0.0 | 0.00 | 0.27 | 0.27 | 99 | 1011.7 |
| 20260506102156 | 46 | 148 | 0.0 | 1.0 | 0.00 | 0.27 | 0.27 | 99 | 1011.7 |
| 20260506101653 | 46 | 142 | 0.0 | 0.0 | 0.00 | 0.27 | 0.27 | 99 | 1011.4 |
| 20260506101150 | 46 | 199 | 0.0 | 0.0 | 0.00 | 0.27 | 0.27 | 99 | 1011.2 |
| 20260506100648 | 46 | 151 | 0.0 | 0.0 | 0.00 | 0.27 | 0.27 | 99 | 1010.6 |
| 20260506100146 | 46 | 147 | 0.0 | 0.0 | 0.00 | 0.27 | 0.27 | 99 | 1010.5 |
| 20260506095644 | 46 | 194 | 0.0 | 1.0 | 0.00 | 0.27 | 0.27 | 99 | 1010.5 |
| 20260506095140 | 46 | 145 | 0.0 | 0.0 | 0.00 | 0.27 | 0.27 | 99 | 1010.8 |
| 20260506094638 | 46 | 141 | 0.0 | 0.0 | 0.00 | 0.27 | 0.27 | 99 | 1010.6 |
| 20260506094136 | 46 | 134 | 0.0 | 0.0 | 0.00 | 0.27 | 0.27 | 99 | 1010.3 |
| 20260506093634 | 46 | 96 | 3.0 | 3.0 | 0.00 | 0.27 | 0.27 | 99 | 1010.0 |
| 20260506093131 | 46 | 109 | 1.0 | 2.0 | 0.00 | 0.27 | 0.27 | 99 | 1010.3 |
| 20260506092629 | 46 | 141 | 2.0 | 2.0 | 0.00 | 0.27 | 0.27 | 99 | 1010.4 |
| 20260506092125 | 46 | 120 | 0.0 | 1.0 | 0.07 | 0.27 | 0.27 | 99 | 1010.9 |
| 20260506091623 | 46 | 262 | 2.0 | 2.0 | 0.07 | 0.27 | 0.27 | 99 | 1011.0 |
| 20260506091121 | 46 | 144 | 0.0 | 1.0 | 0.00 | 0.26 | 0.26 | 99 | 1010.8 |
| 20260506090619 | 46 | 157 | 0.0 | 0.0 | 0.00 | 0.26 | 0.26 | 99 | 1010.4 |
| 20260506090115 | 46 | 155 | 0.0 | 1.0 | 0.00 | 0.26 | 0.26 | 99 | 1010.2 |
| 20260506085612 | 46 | 320 | 5.0 | 7.0 | 0.05 | 0.26 | 0.26 | 99 | 1010.2 |
| 20260506085108 | 46 | 321 | 2.0 | 3.0 | 0.05 | 0.26 | 0.26 | 99 | 1010.5 |
| 20260506084605 | 46 | 139 | 0.0 | 0.0 | 0.00 | 0.25 | 0.25 | 99 | 1010.7 |
| 20260506084101 | 46 | 234 | 2.0 | 2.0 | 0.07 | 0.25 | 0.25 | 99 | 1010.7 |
| 20260506083558 | 46 | 149 | 0.0 | 0.0 | 0.12 | 0.25 | 0.25 | 99 | 1011.0 |
| 20260506083056 | 46 | 147 | 0.0 | 0.0 | 0.12 | 0.24 | 0.24 | 99 | 1010.7 |
| 20260506082552 | 46 | 321 | 2.0 | 5.0 | 0.12 | 0.23 | 0.23 | 99 | 1010.8 |
| 20260506082048 | 46 | 189 | 0.0 | 1.0 | 0.05 | 0.22 | 0.22 | 99 | 1010.5 |
| 20260506081546 | 46 | 132 | 0.0 | 1.0 | 0.12 | 0.22 | 0.22 | 99 | 1010.7 |
| 20260506081043 | 46 | 152 | 0.0 | 0.0 | 0.07 | 0.21 | 0.21 | 99 | 1010.5 |
| 20260506080541 | 46 | 311 | 3.0 | 3.0 | 0.00 | 0.20 | 0.20 | 99 | 1010.5 |
| 20260506073525 | 46 | 139 | 1.0 | 1.0 | 0.00 | 0.20 | 0.20 | 99 | 1010.0 |
| 20260506073022 | 46 | 132 | 0.0 | 1.0 | 0.07 | 0.20 | 0.20 | 99 | 1009.9 |
| 20260506072519 | 47 | 248 | 3.0 | 5.0 | 0.07 | 0.20 | 0.20 | 99 | 1009.8 |
| 20260506072016 | 47 | 130 | 0.0 | 0.0 | 0.05 | 0.19 | 0.19 | 99 | 1009.9 |
| 20260506071514 | 47 | 284 | 0.0 | 1.0 | 0.05 | 0.19 | 0.19 | 99 | 1010.0 |
| 20260506071011 | 47 | 125 | 0.0 | 0.0 | 0.07 | 0.18 | 0.18 | 99 | 1009.8 |
| 20260506070508 | 47 | 112 | 0.0 | 0.0 | 0.12 | 0.18 | 0.18 | 99 | 1010.0 |
| 20260506062445 | 48 | 359 | 3.0 | 6.0 | 0.12 | 0.11 | 0.11 | 99 | 1010.0 |
| 20260506061942 | 48 | 177 | 1.0 | 2.0 | 0.14 | 0.10 | 0.10 | 99 | 1009.9 |
| 20260506061438 | 49 | 133 | 0.0 | 1.0 | 0.12 | 0.09 | 0.09 | 99 | 1010.1 |
| 20260506060936 | 49 | 148 | 0.0 | 0.0 | 0.17 | 0.08 | 0.08 | 99 | 1010.1 |
| 20260506060434 | 49 | 94 | 1.0 | 2.0 | 0.12 | 0.07 | 0.07 | 99 | 1010.2 |
| 20260506051406 | 49 | 285 | 2.0 | 2.0 | 0.12 | 0.02 | 0.02 | 99 | 1010.0 |
| 20260506050903 | 49 | 147 | 0.0 | 0.0 | 0.07 | 0.01 | 0.01 | 99 | 1010.2 |
| 20260506050401 | 49 | 136 | 0.0 | 0.0 | 0.00 | 0.00 | 0.00 | 99 | 1010.2 |
| 20260506044851 | 49 | 133 | 0.0 | 0.0 | 0.00 | 0.00 | 0.00 | 99 | 1010.3 |
| 20260506044349 | 50 | 149 | 0.0 | 0.0 | 0.00 | 0.00 | 0.00 | 99 | 1010.2 |
| 20260506043846 | 50 | 151 | 2.0 | 3.0 | 0.00 | 0.00 | 0.00 | 99 | 1010.1 |
| 20260506043343 | 50 | 131 | 0.0 | 0.0 | 0.00 | 0.00 | 0.00 | 99 | 1010.2 |
| 20260506042841 | 50 | 142 | 0.0 | 0.0 | 0.00 | 0.00 | 0.00 | 99 | 1010.4 |
| 20260506042340 | 50 | 111 | 0.0 | 2.0 | 0.00 | 0.00 | 0.00 | 99 | 1010.2 |
| 20260506041838 | 51 | 141 | 0.0 | 0.0 | 0.00 | 0.00 | 0.00 | 99 | 1010.4 |
| 20260506041335 | 50 | 147 | 0.0 | 0.0 | 0.00 | 0.00 | 0.00 | 99 | 1010.2 |
| 20260506040832 | 50 | 139 | 0.0 | 0.0 | 0.00 | 0.00 | 0.00 | 99 | 1010.3 |
| 20260506040330 | 50 | 150 | 0.0 | 0.0 | 0.00 | 0.00 | 0.00 | 99 | 1010.4 |
| 20260506035825 | 50 | 145 | 0.0 | 0.0 | 0.00 | 0.53 | 0.53 | 99 | 1010.5 |
| 20260506035323 | 50 | 87 | 1.0 | 2.0 | 0.00 | 0.53 | 0.53 | 99 | 1010.6 |
| 20260506034820 | 50 | 113 | 0.0 | 1.0 | 0.05 | 0.53 | 0.53 | 99 | 1010.6 |
| 20260506034317 | 50 | 149 | 0.0 | 0.0 | 0.05 | 0.53 | 0.53 | 99 | 1010.6 |
| 20260506033814 | 50 | 105 | 0.0 | 1.0 | 0.07 | 0.52 | 0.52 | 99 | 1010.7 |
| 20260506033311 | 50 | 161 | 1.0 | 1.0 | 0.12 | 0.52 | 0.52 | 99 | 1010.4 |
| 20260506032808 | 51 | 172 | 0.0 | 0.0 | 0.12 | 0.51 | 0.51 | 99 | 1011.0 |
| 20260506032306 | 52 | 154 | 0.0 | 0.0 | 0.14 | 0.50 | 0.50 | 99 | 1011.0 |
| 20260506031801 | 52 | 136 | 0.0 | 0.0 | 0.19 | 0.49 | 0.49 | 99 | 1011.0 |
| 20260506031259 | 52 | 117 | 0.0 | 0.0 | 0.24 | 0.48 | 0.48 | 99 | 1011.0 |
| 20260506030757 | 53 | 115 | 1.0 | 1.0 | 0.24 | 0.46 | 0.46 | 99 | 1011.2 |
| 20260506030254 | 54 | 159 | 1.0 | 1.0 | 0.24 | 0.44 | 0.44 | 99 | 1011.2 |
| 20260506025751 | 55 | 197 | 0.0 | 0.0 | 0.24 | 0.43 | 0.43 | 99 | 1010.9 |
| 20260506025247 | 55 | 152 | 0.0 | 0.0 | 0.05 | 0.40 | 0.40 | 99 | 1011.1 |
| 20260506024744 | 58 | 133 | 0.0 | 0.0 | 0.07 | 0.39 | 0.39 | 99 | 1010.7 |
| 20260506024241 | 59 | 151 | 0.0 | 0.0 | 0.07 | 0.39 | 0.39 | 99 | 1010.7 |
| 20260506023737 | 59 | 144 | 0.0 | 0.0 | 0.05 | 0.38 | 0.38 | 99 | 1010.4 |
| 20260506023234 | 59 | 146 | 0.0 | 0.0 | 0.05 | 0.38 | 0.38 | 99 | 1010.4 |
| 20260506022731 | 59 | 139 | 0.0 | 0.0 | 0.07 | 0.37 | 0.37 | 99 | 1010.5 |
| 20260506022229 | 59 | 143 | 0.0 | 0.0 | 0.14 | 0.37 | 0.37 | 99 | 1010.8 |
| 20260506021727 | 59 | 143 | 0.0 | 0.0 | 0.12 | 0.36 | 0.36 | 99 | 1010.6 |
| 20260506021224 | 59 | 151 | 0.0 | 0.0 | 0.12 | 0.35 | 0.35 | 99 | 1010.5 |
| 20260506020720 | 59 | 140 | 0.0 | 0.0 | 0.12 | 0.34 | 0.34 | 99 | 1010.7 |
| 20260506020218 | 59 | 141 | 0.0 | 0.0 | 0.19 | 0.34 | 0.34 | 99 | 1010.5 |
| 20260506015715 | 59 | 142 | 0.0 | 0.0 | 0.19 | 0.32 | 0.32 | 99 | 1010.5 |
| 20260506015213 | 60 | 137 | 0.0 | 0.0 | 0.17 | 0.31 | 0.31 | 99 | 1010.8 |
| 20260506014710 | 60 | 141 | 0.0 | 0.0 | 0.19 | 0.30 | 0.30 | 99 | 1010.5 |
| 20260506014206 | 60 | 142 | 0.0 | 0.0 | 0.12 | 0.28 | 0.28 | 99 | 1010.4 |
| 20260506013704 | 60 | 148 | 0.0 | 0.0 | 0.12 | 0.27 | 0.27 | 99 | 1010.7 |
| 20260506013201 | 60 | 141 | 0.0 | 0.0 | 0.12 | 0.26 | 0.26 | 99 | 1010.6 |
| 20260506012657 | 60 | 142 | 0.0 | 0.0 | 0.05 | 0.25 | 0.25 | 99 | 1010.5 |
| 20260506012154 | 60 | 141 | 0.0 | 0.0 | 0.07 | 0.24 | 0.24 | 99 | 1010.3 |
| 20260506011651 | 60 | 141 | 0.0 | 0.0 | 0.07 | 0.24 | 0.24 | 99 | 1010.1 |
| 20260506011147 | 60 | 141 | 0.0 | 0.0 | 0.00 | 0.23 | 0.23 | 99 | 1010.1 |
| 20260506010646 | 60 | 141 | 0.0 | 0.0 | 0.00 | 0.23 | 0.23 | 99 | 1010.2 |
| 20260506010143 | 60 | 149 | 0.0 | 0.0 | 0.00 | 0.23 | 0.23 | 99 | 1010.1 |
| 20260506005639 | 60 | 140 | 0.0 | 0.0 | 0.00 | 0.23 | 0.23 | 99 | 1010.1 |
| 20260506005136 | 60 | 139 | 0.0 | 0.0 | 0.07 | 0.23 | 0.23 | 99 | 1010.1 |
| 20260506004632 | 60 | 146 | 0.0 | 0.0 | 0.07 | 0.23 | 0.23 | 99 | 1010.2 |
| 20260506004130 | 60 | 144 | 0.0 | 0.0 | 0.05 | 0.22 | 0.22 | 99 | 1010.0 |
| 20260506003626 | 60 | 145 | 0.0 | 0.0 | 0.05 | 0.22 | 0.22 | 99 | 1010.0 |
| 20260506003122 | 60 | 144 | 0.0 | 0.0 | 0.00 | 0.21 | 0.21 | 99 | 1010.2 |
| 20260506002619 | 60 | 144 | 0.0 | 0.0 | 0.00 | 0.21 | 0.21 | 99 | 1010.3 |
| 20260506002114 | 60 | 146 | 0.0 | 0.0 | 0.00 | 0.21 | 0.21 | 99 | 1010.2 |
| 20260506001611 | 60 | 135 | 0.0 | 0.0 | 0.07 | 0.21 | 0.21 | 99 | 1010.0 |
| 20260506001108 | 60 | 159 | 0.0 | 0.0 | 0.07 | 0.21 | 0.21 | 99 | 1010.0 |
| 20260506000606 | 60 | 143 | 0.0 | 0.0 | 0.05 | 0.20 | 0.20 | 99 | 1010.2 |
| 20260505235601 | 60 | 143 | 0.0 | 0.0 | 0.07 | 0.19 | 0.19 | 99 | 1010.2 |
| 20260505235057 | 60 | 140 | 0.0 | 0.0 | 0.05 | 0.18 | 0.18 | 99 | 1009.8 |
| 20260505234554 | 60 | 142 | 0.0 | 0.0 | 0.05 | 0.18 | 0.18 | 99 | 1010.2 |
| 20260505234051 | 60 | 142 | 0.0 | 0.0 | 0.00 | 0.17 | 0.17 | 99 | 1010.2 |
| 20260505233549 | 60 | 142 | 0.0 | 0.0 | 0.00 | 0.17 | 0.17 | 99 | 1010.2 |
| 20260505233046 | 60 | 140 | 0.0 | 0.0 | 0.00 | 0.17 | 0.17 | 99 | 1010.3 |
| 20260505232544 | 60 | 142 | 0.0 | 0.0 | 0.00 | 0.17 | 0.17 | 99 | 1010.3 |
| 20260505232041 | 60 | 143 | 0.0 | 0.0 | 0.07 | 0.17 | 0.17 | 99 | 1010.3 |
| 20260505231537 | 60 | 141 | 0.0 | 0.0 | 0.07 | 0.17 | 0.17 | 99 | 1010.5 |
| 20260505231036 | 60 | 141 | 0.0 | 0.0 | 0.00 | 0.16 | 0.16 | 99 | 1010.4 |
| 20260505230533 | 60 | 141 | 0.0 | 0.0 | 0.00 | 0.16 | 0.16 | 99 | 1010.5 |
| 20260505230030 | 60 | 143 | 0.0 | 0.0 | 0.00 | 0.16 | 0.16 | 99 | 1010.8 |